Wind_Speed
26 32 38 44 47 48 49 47 49 52 55 58 59 63 65 67 72 75 75 71 70 59 50 51 53 54 57 59 60 62 63 63 65 66 67 68 69 70 71 73 75 76 78 80
14 18 22 26 32 37 41 44 50 54 56 59 61 62 61 57 54 51 49 52 56 57 58 60 62 64 64 65 66 67 69 70 71 72 73 74 76 77 78 81 83 85 88 90
14 7 10 19 26 30 34 38 42 44 44 43 42 43 45 47 50 53 54 58 62 65 68 70 71 72 73 73 75 76 77 79 81 82 83 85 86 87 89 90 92 93 96 98
8 5 3 5 10 13 17 22 27 32 36 41 46 50 52 56 58 60 62 65 67 70 73 75 76 79 80 82 83 84 87 88 89 91 92 93 93 96 99 99 102 103 103 105
6 8 10 14 19 24 29 33 36 39 43 48 53 57 58 63 66 68 71 72 74 75 77 81 83 86 87 90 92 93 93 94 96 98 99 101 103 105 107 108 107 108 110 112
19 21 24 26 30 34 38 40 43 47 51 55 61 65 70 73 78 82 83 83 82 87 90 90 91 91 89 89 90 94 99 102 102 102 106 108 108 111 112 113 115 117 117 119
26 26 29 35 39 43 48 53 55 59 63 66 70 76 78 82 84 88 92 94 95 97 102 98 98 98 99 101 102 101 104 105 104 104 104 107 109 115 118 117 117 116 113 111
34 36 41 47 50 54 57 59 62 67 71 75 81 85 89 92 93 96 97 98 99 98 96 99 104 106 107 105 107 108 107 108 110 113 114 114 115 112 107 106 104 103 103 103
47 48 53 57 60 63 67 72 75 77 82 85 89 91 95 97 98 98 98 100 101 99 95 97 97 101 103 106 107 108 111 113 112 112 111 107 104 103 102 102 99 98 99 98
54 58 61 64 67 70 72 75 78 82 84 88 91 96 99 101 98 96 96 93 95 93 90 87 89 93 98 97 95 95 97 98 98 100 100 99 98 98 98 98 96 96 97 96
57 62 66 72 75 79 81 84 83 85 89 93 97 99 102 105 104 102 102 92 89 85 85 86 87 89 89 87 87 91 92 93 95 96 95 93 93 94 94 95 94 93 93 90
66 70 73 78 81 84 88 89 90 91 94 98 100 102 105 104 98 92 86 81 81 79 82 82 81 80 81 81 82 85 85 86 87 88 89 90 89 90 92 91 91 92 92 91
71 75 80 84 87 88 90 92 93 94 96 98 97 99 97 96 87 85 81 79 77 77 77 75 74 76 76 76 78 80 79 81 82 83 84 84 85 85 84 87 90 92 94 96
79 82 85 89 92 96 97 95 95 98 99 96 96 95 91 86 82 79 77 77 75 74 73 71 71 74 74 76 77 77 78 80 81 82 82 82 83 84 85 85 86 90 97 100
85 88 92 96 98 99 99 100 101 100 99 99 95 91 85 83 80 78 77 76 74 74 74 72 70 72 73 76 76 77 78 80 82 82 84 84 85 86 88 89 90 91 92 94
94 94 97 98 98 100 102 102 101 103 101 99 96 91 86 82 80 79 78 78 76 74 74 72 71 74 74 76 77 77 78 81 83 85 86 87 88 89 90 90 90 90 90 89
97 98 98 100 102 104 104 103 104 105 104 100 98 92 89 84 82 81 80 79 78 76 75 73 74 75 76 77 77 78 79 82 85 86 87 88 89 89 90 88 86 83 82 81
98 101 104 103 105 106 105 106 106 106 103 101 96 93 88 85 83 82 82 80 79 76 75 74 76 76 75 77 78 79 81 82 84 85 86 86 86 85 82 79 77 75 75 72
103 106 106 108 108 108 109 109 109 106 101 96 94 91 88 87 85 83 82 81 79 73 77 80 80 77 77 78 80 80 81 82 83 83 81 79 77 76 74 72 70 68 64 59
105 106 108 109 108 108 107 106 107 102 97 94 92 89 90 89 86 83 84 81 81 76 78 79 80 81 80 81 81 81 80 79 75 73 72 71 70 68 66 63 60 56 52 48
108 106 106 108 107 108 106 106 104 101 99 97 94 89 87 86 85 85 83 80 83 83 81 82 81 81 81 80 78 76 72 70 69 67 66 64 61 58 55 51 48 44 41 38
110 111 110 111 108 108 109 107 105 103 101 97 91 87 84 84 85 84 84 81 79 80 83 83 81 79 77 73 70 69 67 63 60 58 56 53 50 47 44 40 38 35 34 31
114 113 111 108 109 110 109 105 102 98 96 91 88 85 83 82 84 81 79 84 83 80 78 76 74 72 71 71 67 63 60 57 53 50 46 43 41 39 36 34 32 30 28 24
112 110 107 108 110 108 104 101 96 93 90 88 86 84 82 82 83 82 79 77 77 75 73 71 69 67 65 62 59 57 51 45 42 39 38 36 34 32 30 28 26 24 20 18
109 104 106 106 105 101 97 92 90 87 86 86 85 82 81 81 76 76 76 75 72 68 68 67 64 60 57 54 50 46 43 39 36 34 33 31 28 26 24 22 19 16 14 11
104 103 101 99 96 91 89 88 85 85 82 82 82 80 79 77 74 72 70 69 68 66 63 60 58 56 52 46 43 40 38 35 31 29 28 25 23 20 18 15 13 11 8 6
98 96 94 92 88 86 85 84 83 82 79 76 76 76 73 71 70 68 67 66 63 60 58 54 51 46 43 41 39 36 32 29 26 24 22 20 18 15 13 10 8 6 5 6
Wind_Direction
204 212 217 222 228 233 240 247 253 260 265 268 271 273 274 277 281 283 282 282 280 284 282 280 281 281 281 282 282 284 285 285 286 286 287 288 289 290 290 290 290 289 290 289
191 215 228 235 242 246 250 255 259 263 267 269 272 275 278 277 275 275 275 276 277 280 279 278 278 278 278 279 280 281 282 283 284 285 287 286 289 290 290 290 291 291 291 292
94 133 208 230 239 246 250 255 259 262 267 270 270 271 271 271 273 274 274 273 274 275 277 277 279 280 281 282 282 283 285 286 287 288 288 288 290 291 291 290 290 290 290 290
102 117 172 225 244 246 249 255 259 262 266 270 272 273 275 278 279 278 277 276 276 277 277 278 278 278 278 278 279 280 281 283 284 285 285 288 289 288 288 289 288 288 291 293
302 276 273 263 253 251 255 259 262 266 268 269 269 270 273 275 278 280 282 286 290 292 293 291 289 286 285 284 284 285 285 285 285 287 287 288 286 287 287 287 290 291 290 290
310 306 302 289 282 276 280 274 279 281 281 279 274 271 273 280 288 292 296 293 291 292 294 292 291 288 288 287 288 288 286 286 288 288 287 288 289 288 290 290 288 289 290 291
302 295 296 298 294 289 290 295 290 286 287 285 285 287 286 287 289 292 289 291 295 295 293 292 291 290 290 289 288 286 286 287 288 288 288 289 290 289 287 288 289 290 290 290
308 303 302 304 304 302 298 294 292 289 287 289 291 292 293 294 294 296 296 294 295 296 292 289 288 288 288 287 286 286 286 286 287 288 288 288 289 289 289 289 289 288 289 290
305 306 306 306 307 306 302 299 297 295 294 293 293 293 294 295 297 296 295 296 295 292 291 290 286 286 285 284 284 283 283 284 285 286 287 287 288 288 288 289 289 289 289 290
306 304 306 305 305 304 303 303 301 298 297 296 295 294 296 297 296 298 297 294 293 290 291 290 288 286 285 286 285 285 285 285 287 287 287 287 288 289 290 290 290 290 290 291
298 299 301 301 302 301 301 300 300 300 298 298 298 299 298 297 299 298 295 296 293 293 292 290 289 287 287 289 288 287 287 286 286 286 287 288 288 289 290 291 291 291 291 291
295 297 298 301 303 302 302 302 301 298 297 298 299 299 298 298 298 299 297 295 294 293 291 290 289 290 288 288 288 287 288 288 288 287 288 289 289 290 291 292 292 293 292 292
298 299 299 299 302 302 301 300 299 299 299 297 297 298 297 300 297 298 297 295 294 293 291 290 289 288 289 290 289 288 289 288 288 289 289 290 290 290 290 292 294 294 293 293
297 297 299 299 299 299 299 299 299 300 298 298 301 300 301 299 300 300 299 298 296 295 292 291 291 291 294 294 294 294 293 292 291 291 291 291 292 292 292 292 292 293 295 296
298 298 296 295 296 297 299 300 299 300 302 301 302 301 302 302 303 303 303 302 300 297 295 294 294 295 295 295 295 295 294 293 292 292 292 292 292 293 294 294 294 294 294 295
297 298 296 295 295 296 299 300 301 302 303 302 302 300 300 303 302 302 303 302 301 301 298 297 297 297 297 296 296 295 295 295 294 294 293 293 293 293 294 294 294 295 296 296
297 296 295 296 296 298 299 301 303 302 303 303 301 300 300 303 303 302 301 301 300 300 300 299 298 297 297 296 295 295 294 293 293 293 293 293 293 293 293 295 296 297 297 297
295 295 295 297 298 298 299 301 303 303 303 302 301 301 302 302 302 300 301 302 300 301 302 301 298 298 297 297 297 296 294 292 292 292 293 293 294 294 296 296 297 297 297 297
293 292 294 297 299 300 301 303 303 302 303 303 302 302 302 300 300 301 301 302 301 303 303 302 301 300 300 299 297 296 295 295 295 295 296 295 296 296 296 298 297 297 298 299
292 292 293 296 297 298 299 301 302 302 302 302 303 302 300 299 299 300 301 302 302 304 303 302 302 302 301 300 299 297 297 297 297 296 296 296 296 297 298 297 298 299 299 300
289 290 292 293 296 297 298 299 301 302 303 303 302 301 300 300 299 300 302 304 304 304 304 304 302 302 302 301 300 300 299 299 299 298 298 298 299 298 298 299 299 299 298 298
291 291 292 294 297 298 298 299 302 302 302 302 301 300 300 301 302 303 305 303 302 305 305 304 304 304 302 302 302 301 301 301 301 301 300 300 300 300 300 301 300 300 300 300
289 291 293 295 297 299 299 300 301 300 300 300 299 299 300 302 304 303 303 304 307 305 304 303 304 305 305 304 306 306 306 305 305 304 303 302 301 301 302 300 300 300 299 297
288 290 292 295 297 298 300 300 300 299 298 298 298 300 303 305 303 303 304 304 303 304 305 306 307 306 307 308 308 308 308 308 307 306 305 303 303 301 300 299 299 297 296 296
287 290 291 294 296 297 298 298 297 296 296 298 301 304 303 301 302 304 304 305 306 308 309 309 308 309 309 310 310 311 311 312 312 311 309 306 302 300 300 298 296 294 295 295
288 289 291 293 294 295 295 295 295 296 299 303 304 301 300 302 304 305 305 306 309 310 310 309 310 312 313 314 315 315 315 315 314 312 310 307 305 304 302 300 301 297 296 305
288 289 290 290 290 291 292 293 295 299 302 303 300 299 302 304 306 306 307 309 310 309 309 311 313 314 315 315 315 315 315 315 315 314 313 311 308 307 309 307 302 301 307 311
Height
10608 10616 10624 10632 10638 10643 10647 10652 10653 10651 10649 10646 10648 10643 10641 10638 10631 10624 10620 10614 10607 10603 10598 10593 10589 10584 10579 10574 10569 10564 10559 10554 10549 10543 10538 10532 10527 10522 10516 10510 10504 10499 10493 10487
10611 10618 10625 10632 10636 10639 10642 10644 10641 10639 10637 10633 10630 10627 10625 10621 10616 10610 10606 10601 10595 10589 10585 10580 10575 10570 10565 10560 10554 10549 10544 10538 10532 10527 10521 10515 10509 10504 10498 10491 10485 10478 10471 10465
10614 10618 10622 10626 10628 10630 10631 10631 10630 10629 10627 10623 10620 10617 10612 10607 10602 10598 10593 10587 10582 10576 10570 10565 10559 10553 10547 10542 10536 10530 10524 10518 10512 10506 10500 10494 10489 10484 10476 10469 10461 10454 10445 10438
10621 10623 10625 10626 10627 10627 10627 10626 10623 10621 10618 10615 10610 10605 10601 10596 10590 10585 10579 10572 10567 10560 10554 10547 10541 10535 10529 10522 10515 10509 10502 10495 10489 10483 10477 10472 10466 10458 10449 10443 10434 10426 10420 10413
10622 10623 10625 10625 10624 10623 10620 10617 10614 10612 10608 10603 10596 10590 10587 10581 10575 10570 10563 10556 10550 10542 10535 10527 10520 10512 10506 10499 10492 10484 10477 10469 10463 10458 10452 10446 10438 10430 10421 10413 10408 10401 10391 10382
10618 10618 10618 10617 10615 10611 10609 10607 10603 10599 10595 10589 10582 10576 10567 10563 10555 10548 10542 10535 10527 10519 10511 10503 10496 10489 10482 10475 10466 10458 10451 10444 10437 10431 10424 10416 10409 10399 10393 10387 10377 10368 10360 10350
10608 10609 10608 10607 10605 10602 10598 10595 10590 10584 10578 10571 10564 10556 10550 10542 10533 10525 10517 10508 10500 10492 10483 10476 10467 10460 10454 10447 10439 10431 10423 10415 10407 10400 10393 10385 10379 10370 10361 10352 10346 10337 10329 10318
10598 10597 10595 10591 10590 10586 10582 10578 10573 10566 10560 10554 10545 10536 10526 10518 10509 10500 10492 10483 10473 10464 10455 10446 10437 10430 10422 10416 10409 10402 10393 10384 10377 10370 10362 10355 10346 10337 10329 10320 10314 10306 10298 10289
10586 10580 10577 10576 10572 10569 10564 10558 10553 10547 10538 10532 10524 10513 10504 10494 10484 10476 10466 10456 10445 10435 10425 10415 10406 10399 10391 10386 10380 10371 10363 10355 10347 10340 10330 10322 10315 10307 10298 10288 10284 10277 10269 10262
10572 10562 10562 10557 10554 10549 10544 10538 10532 10525 10517 10507 10499 10487 10478 10468 10457 10449 10439 10428 10417 10406 10396 10388 10379 10372 10364 10359 10352 10342 10333 10324 10318 10312 10302 10293 10286 10277 10270 10260 10254 10245 10237 10231
10554 10548 10545 10538 10534 10528 10521 10515 10509 10499 10490 10480 10471 10460 10450 10438 10427 10417 10407 10397 10387 10376 10368 10362 10354 10346 10340 10333 10325 10314 10307 10298 10291 10283 10273 10266 10258 10249 10240 10228 10221 10215 10205 10202
10538 10533 10526 10519 10515 10507 10500 10493 10485 10476 10465 10455 10444 10433 10421 10410 10399 10389 10378 10368 10360 10351 10344 10337 10330 10321 10314 10308 10299 10289 10282 10272 10264 10256 10247 10239 10233 10224 10210 10203 10192 10181 10172 10168
10518 10511 10503 10497 10491 10484 10477 10469 10460 10451 10441 10432 10420 10407 10395 10383 10373 10364 10355 10346 10336 10328 10321 10314 10307 10297 10291 10284 10273 10266 10259 10249 10240 10230 10221 10213 10205 10198 10193 10178 10165 10154 10143 10132
10496 10490 10482 10473 10467 10460 10451 10443 10433 10424 10415 10405 10394 10381 10369 10358 10349 10340 10331 10323 10313 10304 10297 10291 10284 10273 10268 10258 10249 10242 10234 10224 10215 10205 10196 10187 10180 10171 10163 10156 10150 10136 10114 10098
10477 10471 10462 10451 10443 10435 10427 10418 10408 10398 10388 10377 10366 10354 10344 10333 10324 10316 10308 10301 10289 10280 10272 10268 10263 10252 10243 10233 10226 10219 10209 10198 10188 10179 10170 10160 10151 10142 10133 10124 10115 10107 10098 10085
10453 10446 10437 10429 10419 10410 10401 10391 10381 10370 10360 10350 10339 10329 10320 10309 10301 10292 10284 10277 10267 10257 10249 10243 10237 10226 10217 10207 10201 10194 10184 10172 10161 10153 10143 10134 10125 10115 10105 10096 10088 10078 10069 10059
10426 10418 10411 10403 10395 10386 10376 10365 10354 10343 10334 10324 10313 10305 10296 10287 10277 10269 10260 10252 10244 10237 10228 10222 10213 10201 10191 10181 10174 10167 10158 10146 10134 10126 10117 10108 10098 10088 10078 10070 10062 10053 10042 10031
10398 10391 10384 10377 10368 10359 10349 10339 10329 10318 10309 10298 10289 10281 10274 10264 10255 10245 10236 10228 10219 10213 10203 10196 10186 10178 10167 10157 10148 10140 10130 10120 10110 10100 10091 10081 10071 10062 10054 10046 10037 10029 10020 10011
10372 10364 10357 10349 10340 10330 10320 10312 10301 10291 10282 10274 10266 10259 10251 10240 10231 10223 10214 10205 10194 10193 10181 10167 10157 10150 10141 10130 10119 10110 10101 10093 10083 10073 10064 10055 10046 10037 10029 10022 10014 10007 10001 9995
10349 10341 10334 10325 10315 10305 10295 10286 10275 10266 10259 10251 10244 10235 10225 10215 10207 10199 10190 10183 10169 10167 10158 10146 10134 10123 10112 10102 10092 10084 10076 10067 10059 10049 10040 10032 10023 10015 10008 10002 9996 9989 9984 9979
10327 10320 10313 10302 10293 10282 10271 10262 10253 10244 10235 10227 10219 10210 10202 10191 10181 10173 10166 10162 10146 10136 10128 10118 10108 10099 10087 10076 10066 10058 10050 10042 10034 10026 10018 10010 10003 9997 9991 9985 9979 9975 9971 9966
10301 10293 10285 10277 10267 10255 10245 10238 10230 10220 10210 10201 10192 10185 10178 10168 10158 10150 10140 10134 10128 10115 10103 10089 10081 10071 10061 10051 10044 10036 10028 10020 10013 10006 9999 9992 9986 9980 9975 9971 9966 9962 9959 9956
10271 10265 10258 10249 10239 10229 10220 10215 10206 10197 10186 10177 10169 10162 10156 10147 10136 10131 10125 10105 10097 10091 10082 10071 10060 10049 10039 10028 10022 10014 10007 10000 9994 9988 9982 9976 9971 9967 9963 9959 9955 9952 9950 9948
10247 10241 10233 10225 10215 10208 10199 10191 10181 10172 10163 10154 10146 10138 10134 10128 10115 10103 10099 10092 10081 10070 10057 10046 10039 10030 10020 10012 10004 9996 9990 9985 9979 9974 9968 9963 9959 9956 9952 9949 9947 9945 9943 9941
10225 10217 10207 10201 10193 10186 10179 10169 10158 10150 10141 10132 10126 10119 10109 10101 10097 10088 10075 10064 10056 10049 10039 10027 10018 10010 10003 9997 9989 9983 9976 9971 9966 9961 9956 9953 9949 9947 9944 9942 9940 9938 9936 9935
10197 10190 10184 10178 10170 10164 10155 10146 10138 10129 10124 10115 10105 10096 10085 10079 10073 10066 10056 10046 10038 10029 10020 10011 10003 9994 9987 9981 9976 9970 9965 9960 9955 9951 9947 9944 9942 9939 9937 9935 9934 9932 9932 9931
10172 10167 10162 10153 10148 10141 10134 10126 10119 10111 10106 10098 10085 10073 10069 10061 10053 10045 10037 10029 10020 10012 10004 9996 9989 9983 9977 9971 9965 9960 9955 9950 9946 9943 9940 9937 9935 9934 9932 9930 9929 9929 9929 9929